When you browse on this site, cookies collect data to enhance your experience and personalize the content and advertising you see.
Visit our Privacy Policy to learn more. By continuing to use the site, you agree to this use of cookies and data.
  • In Hungary
  • List of Countries
  • For 7 days
  • Water Temperature
  • Satellite Maps
  • Weather Map
  • News
  • Weather Widgets
  • user-avatar
    Login

    Hourly Weather Zbarazh

    Today, 16 January, Wednesday

    Time Temperature Precipitation Wind Pressure Humidity
    00:00 -8°C° 0.1 mm 6 mps 717 mmHg 91%
    01:00 -6°C° 0.1 mm 5 mps 717 mmHg 92%
    02:00 -6°C° 0.1 mm 5 mps 716 mmHg 92%
    03:00 -5°C° 0.6 mm 6 mps 715 mmHg 92%
    04:00 -4°C° 0.6 mm 7 mps 715 mmHg 92%
    05:00 -4°C° 0.6 mm 8 mps 714 mmHg 91%
    06:00 -4°C° 0.7 mm 9 mps 714 mmHg 91%
    07:00 -3°C° 0.7 mm 10 mps 714 mmHg 90%
    08:00 -3°C° 0.7 mm 11 mps 714 mmHg 89%
    09:00 -3°C° 0.3 mm 10 mps 715 mmHg 89%
    10:00 -3°C° 0.3 mm 9 mps 716 mmHg 89%
    11:00 -4°C° 0.3 mm 9 mps 718 mmHg 89%
    12:00 -3°C° 0.1 mm 7 mps 718 mmHg 88%
    13:00 -3°C° 0.1 mm 6 mps 719 mmHg 88%
    14:00 -2°C° 0.1 mm 5 mps 720 mmHg 88%
    15:00 -3°C° 0 mm 4 mps 721 mmHg 89%
    16:00 -3°C° 0 mm 4 mps 721 mmHg 90%
    17:00 -4°C° 0 mm 3 mps 722 mmHg 91%
    18:00 -2°C° 0 mm 2 mps 722 mmHg 93%
    19:00 -2°C° 0 mm 2 mps 722 mmHg 94%
    20:00 -2°C° 0 mm 2 mps 722 mmHg 95%
    21:00 -2°C° 0 mm 3 mps 722 mmHg 96%
    22:00 -1°C° 0 mm 3 mps 723 mmHg 96%
    23:00 -1°C° 0 mm 4 mps 723 mmHg 97%

    Tomorrow, 17 January, Thursday

    Time Temperature Precipitation Wind Pressure Humidity
    00:00 -1°C° 0 mm 3 mps 723 mmHg 96%
    01:00 -1°C° 0 mm 3 mps 723 mmHg 96%
    02:00 -1°C° 0 mm 3 mps 723 mmHg 95%
    03:00 -2°C° 0 mm 4 mps 722 mmHg 94%
    04:00 -2°C° 0 mm 4 mps 722 mmHg 93%
    05:00 -2°C° 0 mm 4 mps 722 mmHg 92%
    06:00 -3°C° 0 mm 4 mps 722 mmHg 90%
    07:00 -3°C° 0 mm 4 mps 721 mmHg 89%
    08:00 -4°C° 0 mm 4 mps 721 mmHg 88%
    09:00 -3°C° 0 mm 4 mps 721 mmHg 87%
    10:00 -2°C° 0 mm 5 mps 721 mmHg 86%
    11:00 -1°C° 0 mm 5 mps 721 mmHg 85%
    12:00 -1°C° 0 mm 5 mps 721 mmHg 87%
    13:00 -1°C° 0 mm 5 mps 721 mmHg 89%
    14:00 0°C° 0 mm 5 mps 721 mmHg 91%
    15:00 0°C° 0 mm 5 mps 721 mmHg 89%
    16:00 0°C° 0 mm 4 mps 721 mmHg 86%
    17:00 -1°C° 0 mm 4 mps 721 mmHg 84%
    18:00 -1°C° 0 mm 4 mps 721 mmHg 84%
    19:00 -1°C° 0 mm 4 mps 720 mmHg 83%
    20:00 -2°C° 0 mm 4 mps 720 mmHg 83%
    21:00 -1°C° 0 mm 4 mps 721 mmHg 83%
    22:00 -1°C° 0 mm 4 mps 721 mmHg 82%
    23:00 -1°C° 0 mm 4 mps 721 mmHg 81%

    Day after tomorrow, 18 January, Friday

    Time Temperature Precipitation Wind Pressure Humidity
    00:00 -1°C° 0 mm 4 mps 721 mmHg 82%
    01:00 -1°C° 0 mm 4 mps 720 mmHg 83%
    02:00 -1°C° 0 mm 4 mps 720 mmHg 84%
    03:00 -1°C° 0.1 mm 4 mps 720 mmHg 86%
    04:00 -1°C° 0.1 mm 4 mps 720 mmHg 87%
    05:00 -1°C° 0.1 mm 4 mps 720 mmHg 89%
    06:00 -1°C° 0.1 mm 4 mps 721 mmHg 88%
    07:00 -1°C° 0.1 mm 4 mps 721 mmHg 88%
    08:00 -1°C° 0.1 mm 5 mps 722 mmHg 87%
    09:00 -1°C° 0.1 mm 5 mps 722 mmHg 86%
    10:00 -1°C° 0.1 mm 5 mps 723 mmHg 86%
    11:00 -3°C° 0.1 mm 6 mps 723 mmHg 86%
    12:00 -3°C° 0 mm 6 mps 724 mmHg 84%
    13:00 -2°C° 0 mm 5 mps 724 mmHg 83%
    14:00 -4°C° 0 mm 5 mps 725 mmHg 82%
    15:00 -4°C° 0 mm 5 mps 725 mmHg 83%
    16:00 -4°C° 0 mm 4 mps 726 mmHg 84%
    17:00 -4°C° 0 mm 4 mps 727 mmHg 85%
    18:00 -5°C° 0 mm 4 mps 727 mmHg 86%
    19:00 -7°C° 0 mm 4 mps 728 mmHg 87%
    20:00 -7°C° 0 mm 4 mps 729 mmHg 88%
    21:00 -8°C° 0 mm 4 mps 729 mmHg 89%
    22:00 -8°C° 0 mm 4 mps 730 mmHg 90%
    23:00 -8°C° 0 mm 4 mps 730 mmHg 90%

    19 January, Saturday

    Time Temperature Precipitation Wind Pressure Humidity
    00:00 -9°C° 0 mm 4 mps 730 mmHg 91%
    01:00 -8°C° 0 mm 3 mps 731 mmHg 91%
    02:00 -8°C° 0 mm 3 mps 731 mmHg 92%
    03:00 -8°C° 0 mm 3 mps 731 mmHg 92%
    04:00 -8°C° 0 mm 3 mps 731 mmHg 92%
    05:00 -8°C° 0 mm 2 mps 731 mmHg 92%
    06:00 -8°C° 0 mm 2 mps 731 mmHg 92%
    07:00 -8°C° 0 mm 2 mps 731 mmHg 91%
    08:00 -8°C° 0 mm 2 mps 731 mmHg 90%
    09:00 -7°C° 0 mm 2 mps 731 mmHg 90%
    10:00 -6°C° 0 mm 2 mps 731 mmHg 89%
    11:00 -6°C° 0 mm 2 mps 731 mmHg 88%
    12:00 -5°C° 0 mm 2 mps 731 mmHg 87%
    13:00 -5°C° 0 mm 2 mps 731 mmHg 87%
    14:00 -4°C° 0 mm 2 mps 730 mmHg 86%
    15:00 -5°C° 0 mm 2 mps 730 mmHg 87%
    16:00 -6°C° 0 mm 2 mps 730 mmHg 88%
    17:00 -7°C° 0 mm 2 mps 730 mmHg 89%
    18:00 -7°C° 0 mm 2 mps 730 mmHg 89%
    19:00 -8°C° 0 mm 2 mps 730 mmHg 90%
    20:00 -8°C° 0 mm 2 mps 730 mmHg 90%
    21:00 -8°C° 0 mm 2 mps 730 mmHg 91%
    22:00 -8°C° 0 mm 2 mps 730 mmHg 91%
    23:00 -8°C° 0 mm 2 mps 730 mmHg 92%

    20 January, Sunday

    Time Temperature Precipitation Wind Pressure Humidity
    00:00 -8°C° 0 mm 2 mps 729 mmHg 93%
    01:00 -8°C° 0 mm 2 mps 729 mmHg 93%
    02:00 -8°C° 0 mm 2 mps 729 mmHg 94%
    03:00 -7°C° 0 mm 1 mps 729 mmHg 94%
    04:00 -7°C° 0 mm 1 mps 728 mmHg 94%
    05:00 -7°C° 0 mm 1 mps 728 mmHg 94%
    06:00 -7°C° 0 mm 1 mps 728 mmHg 94%
    07:00 -6°C° 0 mm 1 mps 728 mmHg 94%
    08:00 -6°C° 0 mm 1 mps 728 mmHg 94%
    09:00 -6°C° 0 mm 0 mps 728 mmHg 93%
    10:00 -5°C° 0 mm 0 mps 728 mmHg 91%
    11:00 -5°C° 0 mm 0 mps 728 mmHg 90%
    12:00 -3°C° 0 mm 1 mps 728 mmHg 90%
    13:00 -3°C° 0 mm 1 mps 728 mmHg 89%
    14:00 -5°C° 0 mm 2 mps 728 mmHg 89%
    15:00 -5°C° 0 mm 2 mps 728 mmHg 89%
    16:00 -6°C° 0 mm 2 mps 728 mmHg 89%
    17:00 -8°C° 0 mm 3 mps 728 mmHg 89%
    18:00 -7°C° 0 mm 3 mps 728 mmHg 90%
    19:00 -8°C° 0 mm 4 mps 729 mmHg 90%
    20:00 -7°C° 0 mm 4 mps 729 mmHg 90%
    21:00 -8°C° 0 mm 4 mps 729 mmHg 90%
    22:00 -8°C° 0 mm 4 mps 729 mmHg 89%
    23:00 -9°C° 0 mm 4 mps 730 mmHg 89%

    21 January, Monday

    Time Temperature Precipitation Wind Pressure Humidity
    00:00 -10°C° 0 mm 5 mps 730 mmHg 90%
    01:00 -10°C° 0 mm 5 mps 730 mmHg 91%
    02:00 -11°C° 0 mm 5 mps 730 mmHg 93%
    03:00 -11°C° 0 mm 5 mps 731 mmHg 93%
    04:00 -11°C° 0 mm 5 mps 731 mmHg 94%
    05:00 -11°C° 0 mm 5 mps 731 mmHg 94%
    06:00 -11°C° 0 mm 5 mps 732 mmHg 94%
    07:00 -11°C° 0 mm 5 mps 732 mmHg 93%
    08:00 -11°C° 0 mm 5 mps 733 mmHg 93%
    09:00 -11°C° 0 mm 5 mps 733 mmHg 92%
    10:00 -10°C° 0 mm 6 mps 733 mmHg 91%
    11:00 -10°C° 0 mm 6 mps 734 mmHg 91%
    12:00 -10°C° 0 mm 6 mps 734 mmHg 88%
    13:00 -9°C° 0 mm 6 mps 734 mmHg 85%
    14:00 -9°C° 0 mm 7 mps 735 mmHg 83%
    15:00 -10°C° 0 mm 6 mps 735 mmHg 84%
    16:00 -10°C° 0 mm 5 mps 735 mmHg 85%
    17:00 -9°C° 0 mm 4 mps 735 mmHg 86%
    18:00 -10°C° 0 mm 4 mps 736 mmHg 89%
    19:00 -10°C° 0 mm 3 mps 736 mmHg 91%
    20:00 -12°C° 0 mm 3 mps 736 mmHg 93%
    21:00 -10°C° 0 mm 2 mps 736 mmHg 93%
    22:00 -10°C° 0 mm 2 mps 736 mmHg 94%
    23:00 -10°C° 0 mm 2 mps 736 mmHg 94%
    Show more